IRIDIUM 33 DEB, 38228

Orbit data source: Space-Track

IRIDIUM 33 DEB, 38228 is space debris in LEO originally from a launch on Sun, 14 Sep 1997 UTC launched from the Tyuratam Missile And Space Complex (TTMTR). The debris from Iridium 33, an American commercial communications satellite, has been tracked extensively since its accidental collision with the defunct Russian satellite Cosmos 2251 in 2009. This event, occurring at high speed in low Earth orbit (LEO), generated thousands of pieces of space debris, significantly increasing the risk of further collisions. The Iridium 33 debris cloud has impacted space traffic management and orbital debris mitigation strategies, making it a subject of ongoing study in space situational awareness.

Loading next visibility...
Identifier
38228, 1997-051ZC
Orbit
LEO
Country
Flag of USUS
Related business
Manufacturer
Unknown
Mission
Spacecraft
Bus & Motor
Unknown
Mass
Unknown
Launch date (UTC)
1997-09-14 (28 years ago)
Launch vehicle
Unknown
Launch site
Tyuratam Missile And Space Complex (TTMTR)
Object type
Payload
Rocket body
Debris
Shape & HBR
Unknown shape, 0.1 m
Radar Cross Section
Small (<0.1 m²)

Expand to show TLE details & history
Last TLE update: 2 days ago

TLE from 2 days ago
0 IRIDIUM 33 DEB
1 38228U 97051ZC  25303.12017250  .00001243  00000-0  49184-3 0  9995
2 38228  86.2938  67.0073 0063247 333.1222 209.6749 14.27133144841596
Epoch: 2025-10-30T02:53Z
TLE epoch observation values (Epoch: 2025-10-30T02:53:02.903Z)
Latitude
-2.56984°
Longitude
165.22737°
Altitude
844.27 km
Speed
7.41 km/s
True Right ascension
16h 28m 41s
True Declination
-2° 33' 17"
Sunlit
Object was in daylight at epoch
Visualization orbit readout
Latitude
Unknown
Longitude
Unknown
Altitude
Unknown
Speed
Unknown
Apparent Right ascension
Unknown
Apparent Declination
Unknown
Sunlit
N/A
Visualization observer readout
Local Sidereal Time
03:02:56
Azimuth
Unknown
Elevation
Unknown
Doppler factor
Unknown
Orbital elements
Apogee altitude
843.695 km
Perigee altitude
752.917 km
Semi-major axis
7,176.443 km
Eccentricity
0.00632
Inclination
86.2938°
RAAN
67.0073°
Arg. of periapsis
333.1222°
True anomaly
209.31854°
Mean anomaly
209.6749°
Eccentric anomaly
209.49648°
Mean motion
3.57009 °/min
Orbital period
100.84 mins
BSTAR
0.00049184
Loading maneuver chart data...
Computing Atmospheric mass density...

Documentation

Showing up to 5 results
|